When you browse on this site, cookies collect data to enhance your experience and personalize the content and advertising you see.
Visit our Privacy Policy to learn more. By continuing to use the site, you agree to this use of cookies and data.
  • In Austria
  • List of Countries
  • For 7 days
  • Water Temperature
  • Weather Map
  • News
  • Weather Widgets
  • user-avatar
    Login

    Hourly Weather Tyrgowishte

    Today, 24 October, Thursday

    Time Temperature Precipitation Wind Pressure Humidity
    00:00 +15°C° 0 mm 1 mps 748 mmHg 63%
    01:00 +14°C° 0 mm 1 mps 748 mmHg 65%
    02:00 +14°C° 0 mm 1 mps 748 mmHg 67%
    03:00 +14°C° 0 mm 1 mps 748 mmHg 67%
    04:00 +13°C° 0 mm 1 mps 747 mmHg 67%
    05:00 +13°C° 0 mm 1 mps 747 mmHg 68%
    06:00 +14°C° 0 mm 1 mps 747 mmHg 65%
    07:00 +15°C° 0 mm 1 mps 747 mmHg 62%
    08:00 +15°C° 0 mm 1 mps 747 mmHg 58%
    09:00 +19°C° 0 mm 1 mps 748 mmHg 49%
    10:00 +21°C° 0 mm 1 mps 748 mmHg 39%
    11:00 +24°C° 0 mm 2 mps 748 mmHg 30%
    12:00 +25°C° 0 mm 2 mps 747 mmHg 28%
    13:00 +26°C° 0 mm 2 mps 747 mmHg 26%
    14:00 +26°C° 0 mm 2 mps 747 mmHg 24%
    15:00 +25°C° 0 mm 2 mps 746 mmHg 29%
    16:00 +23°C° 0 mm 2 mps 746 mmHg 34%
    17:00 +20°C° 0 mm 2 mps 745 mmHg 39%
    18:00 +19°C° 0 mm 2 mps 745 mmHg 46%
    19:00 +17°C° 0 mm 2 mps 746 mmHg 53%
    20:00 +16°C° 0 mm 2 mps 746 mmHg 61%
    21:00 +15°C° 0 mm 2 mps 746 mmHg 64%
    22:00 +15°C° 0 mm 2 mps 746 mmHg 67%
    23:00 +14°C° 0 mm 2 mps 746 mmHg 70%

    Tomorrow, 25 October, Friday

    Time Temperature Precipitation Wind Pressure Humidity
    00:00 +14°C° 0 mm 1 mps 746 mmHg 71%
    01:00 +13°C° 0 mm 1 mps 746 mmHg 72%
    02:00 +13°C° 0 mm 1 mps 746 mmHg 72%
    03:00 +13°C° 0 mm 1 mps 745 mmHg 71%
    04:00 +13°C° 0 mm 1 mps 745 mmHg 69%
    05:00 +12°C° 0 mm 1 mps 745 mmHg 67%
    06:00 +13°C° 0 mm 1 mps 745 mmHg 63%
    07:00 +14°C° 0 mm 1 mps 746 mmHg 59%
    08:00 +15°C° 0 mm 1 mps 746 mmHg 55%
    09:00 +18°C° 0 mm 1 mps 746 mmHg 47%
    10:00 +21°C° 0 mm 1 mps 746 mmHg 39%
    11:00 +23°C° 0 mm 1 mps 747 mmHg 31%
    12:00 +24°C° 0 mm 1 mps 746 mmHg 29%
    13:00 +25°C° 0 mm 1 mps 746 mmHg 26%
    14:00 +26°C° 0 mm 1 mps 746 mmHg 24%
    15:00 +24°C° 0 mm 1 mps 746 mmHg 28%
    16:00 +23°C° 0 mm 1 mps 746 mmHg 33%
    17:00 +20°C° 0 mm 2 mps 746 mmHg 37%
    18:00 +20°C° 0 mm 1 mps 746 mmHg 43%
    19:00 +18°C° 0 mm 1 mps 746 mmHg 48%
    20:00 +16°C° 0 mm 1 mps 747 mmHg 54%
    21:00 +16°C° 0 mm 1 mps 747 mmHg 56%
    22:00 +15°C° 0 mm 1 mps 747 mmHg 58%
    23:00 +14°C° 0 mm 0 mps 748 mmHg 61%

    Day after tomorrow, 26 October, Saturday

    Time Temperature Precipitation Wind Pressure Humidity
    00:00 +13°C° 0 mm 0 mps 748 mmHg 61%
    01:00 +13°C° 0 mm 0 mps 748 mmHg 62%
    02:00 +13°C° 0 mm 0 mps 748 mmHg 63%
    03:00 +12°C° 0 mm 0 mps 748 mmHg 62%
    04:00 +12°C° 0 mm 0 mps 748 mmHg 62%
    05:00 +12°C° 0 mm 0 mps 748 mmHg 61%
    06:00 +13°C° 0 mm 0 mps 748 mmHg 58%
    07:00 +14°C° 0 mm 0 mps 749 mmHg 56%
    08:00 +14°C° 0 mm 0 mps 749 mmHg 53%
    09:00 +19°C° 0 mm 1 mps 749 mmHg 47%
    10:00 +21°C° 0 mm 1 mps 749 mmHg 41%
    11:00 +23°C° 0 mm 1 mps 750 mmHg 35%
    12:00 +24°C° 0 mm 1 mps 749 mmHg 32%
    13:00 +25°C° 0 mm 1 mps 749 mmHg 30%
    14:00 +25°C° 0 mm 1 mps 749 mmHg 28%
    15:00 +24°C° 0 mm 1 mps 748 mmHg 31%
    16:00 +22°C° 0 mm 1 mps 748 mmHg 34%
    17:00 +21°C° 0 mm 1 mps 748 mmHg 38%
    18:00 +20°C° 0 mm 1 mps 748 mmHg 41%
    19:00 +19°C° 0 mm 1 mps 748 mmHg 44%
    20:00 +15°C° 0 mm 0 mps 748 mmHg 47%
    21:00 +15°C° 0 mm 0 mps 748 mmHg 48%
    22:00 +14°C° 0 mm 0 mps 748 mmHg 50%
    23:00 +14°C° 0 mm 0 mps 748 mmHg 51%

    27 October, Sunday

    Time Temperature Precipitation Wind Pressure Humidity
    00:00 +14°C° 0 mm 0 mps 748 mmHg 52%
    01:00 +13°C° 0 mm 0 mps 748 mmHg 53%
    02:00 +13°C° 0 mm 0 mps 748 mmHg 54%
    03:00 +13°C° 0 mm 0 mps 748 mmHg 54%
    04:00 +12°C° 0 mm 0 mps 748 mmHg 55%
    05:00 +12°C° 0 mm 0 mps 748 mmHg 55%
    06:00 +13°C° 0 mm 0 mps 748 mmHg 53%
    07:00 +14°C° 0 mm 0 mps 748 mmHg 51%
    08:00 +15°C° 0 mm 0 mps 748 mmHg 49%
    09:00 +17°C° 0 mm 0 mps 748 mmHg 43%
    10:00 +19°C° 0 mm 0 mps 748 mmHg 37%
    11:00 +22°C° 0 mm 0 mps 748 mmHg 32%
    12:00 +25°C° 0 mm 1 mps 748 mmHg 30%
    13:00 +25°C° 0 mm 1 mps 747 mmHg 29%
    14:00 +26°C° 0 mm 1 mps 747 mmHg 27%
    15:00 +24°C° 0 mm 1 mps 747 mmHg 31%
    16:00 +23°C° 0 mm 1 mps 746 mmHg 35%
    17:00 +21°C° 0 mm 1 mps 746 mmHg 39%
    18:00 +20°C° 0 mm 1 mps 746 mmHg 42%
    19:00 +19°C° 0 mm 1 mps 746 mmHg 46%
    20:00 +18°C° 0 mm 1 mps 746 mmHg 49%
    21:00 +16°C° 0 mm 1 mps 746 mmHg 52%
    22:00 +15°C° 0 mm 1 mps 746 mmHg 54%
    23:00 +15°C° 0 mm 1 mps 746 mmHg 56%

    28 October, Monday

    Time Temperature Precipitation Wind Pressure Humidity
    00:00 +14°C° 0 mm 1 mps 745 mmHg 58%
    01:00 +14°C° 0 mm 1 mps 745 mmHg 60%
    02:00 +14°C° 0 mm 1 mps 745 mmHg 61%
    03:00 +13°C° 0 mm 1 mps 744 mmHg 62%
    04:00 +13°C° 0 mm 1 mps 744 mmHg 63%
    05:00 +13°C° 0 mm 1 mps 744 mmHg 64%
    06:00 +13°C° 0 mm 1 mps 744 mmHg 62%
    07:00 +14°C° 0 mm 1 mps 744 mmHg 59%
    08:00 +15°C° 0 mm 1 mps 744 mmHg 57%
    09:00 +18°C° 0 mm 1 mps 744 mmHg 49%
    10:00 +21°C° 0 mm 1 mps 743 mmHg 41%
    11:00 +23°C° 0 mm 1 mps 743 mmHg 34%
    12:00 +24°C° 0 mm 1 mps 743 mmHg 31%
    13:00 +25°C° 0 mm 1 mps 743 mmHg 29%
    14:00 +25°C° 0 mm 1 mps 742 mmHg 26%
    15:00 +24°C° 0 mm 1 mps 742 mmHg 30%
    16:00 +22°C° 0 mm 1 mps 742 mmHg 33%
    17:00 +20°C° 0 mm 2 mps 741 mmHg 37%
    18:00 +20°C° 0 mm 1 mps 742 mmHg 42%
    19:00 +18°C° 0 mm 1 mps 742 mmHg 46%
    20:00 +16°C° 0 mm 1 mps 742 mmHg 51%
    21:00 +16°C° 0 mm 1 mps 742 mmHg 55%
    22:00 +15°C° 0 mm 1 mps 742 mmHg 58%
    23:00 +14°C° 0 mm 1 mps 742 mmHg 61%

    29 October, Tuesday

    Time Temperature Precipitation Wind Pressure Humidity
    00:00 +14°C° 0 mm 1 mps 742 mmHg 62%
    01:00 +14°C° 0 mm 1 mps 742 mmHg 64%
    02:00 +14°C° 0 mm 1 mps 742 mmHg 65%
    03:00 +13°C° 0 mm 1 mps 742 mmHg 65%
    04:00 +13°C° 0 mm 1 mps 742 mmHg 64%
    05:00 +12°C° 0 mm 0 mps 741 mmHg 64%
    06:00 +13°C° 0 mm 0 mps 742 mmHg 62%
    07:00 +14°C° 0 mm 0 mps 742 mmHg 59%
    08:00 +14°C° 0 mm 0 mps 742 mmHg 56%
    09:00 +18°C° 0 mm 1 mps 742 mmHg 49%
    10:00 +20°C° 0 mm 1 mps 742 mmHg 41%
    11:00 +23°C° 0 mm 1 mps 743 mmHg 34%
    12:00 +23°C° 0 mm 1 mps 742 mmHg 32%
    13:00 +24°C° 0 mm 1 mps 742 mmHg 29%
    14:00 +25°C° 0 mm 2 mps 742 mmHg 27%
    15:00 +23°C° 0 mm 1 mps 742 mmHg 30%
    16:00 +21°C° 0 mm 1 mps 741 mmHg 33%
    17:00 +20°C° 0 mm 1 mps 741 mmHg 36%
    18:00 +19°C° 0 mm 1 mps 741 mmHg 39%
    19:00 +16°C° 0 mm 0 mps 741 mmHg 42%
    20:00 +14°C° 0 mm 0 mps 742 mmHg 45%
    21:00 +14°C° 0 mm 0 mps 742 mmHg 46%
    22:00 +14°C° 0 mm 0 mps 742 mmHg 47%
    23:00 +13°C° 0 mm 0 mps 742 mmHg 48%

    30 October, Wednesday

    Time Temperature Precipitation Wind Pressure Humidity
    00:00 +14°C° 0 mm 1 mps 742 mmHg 49%
    01:00 +14°C° 0 mm 1 mps 742 mmHg 49%
    02:00 +13°C° 0 mm 1 mps 741 mmHg 49%
    03:00 +13°C° 0 mm 1 mps 741 mmHg 49%
    04:00 +13°C° 0 mm 1 mps 741 mmHg 49%
    05:00 +13°C° 0 mm 1 mps 741 mmHg 49%
    06:00 +12°C° 0 mm 0 mps 741 mmHg 48%
    07:00 +13°C° 0 mm 0 mps 742 mmHg 46%
    08:00 +14°C° 0 mm 0 mps 742 mmHg 45%
    09:00 +16°C° 0 mm 0 mps 742 mmHg 39%
    10:00 +19°C° 0 mm 0 mps 742 mmHg 34%
    11:00 +21°C° 0 mm 0 mps 742 mmHg 28%
    12:00 +22°C° 0 mm 0 mps 742 mmHg 27%
    13:00 +24°C° 0 mm 1 mps 741 mmHg 25%
    14:00 +25°C° 0 mm 1 mps 741 mmHg 24%
    15:00 +23°C° 0 mm 1 mps 741 mmHg 28%
    16:00 +21°C° 0 mm 1 mps 740 mmHg 31%
    17:00 +18°C° 0 mm 0 mps 740 mmHg 34%
    18:00 +19°C° 0 mm 1 mps 740 mmHg 37%
    19:00 +18°C° 0 mm 1 mps 740 mmHg 39%
    20:00 +16°C° 0 mm 1 mps 740 mmHg 42%
    21:00 +15°C° 0 mm 1 mps 740 mmHg 43%
    22:00 +15°C° 0 mm 1 mps 740 mmHg 44%
    23:00 +15°C° 0 mm 1 mps 740 mmHg 46%
    Show more